250043013,2013-07-10T13:41:20.878, 1174.14, 4921550, 237.79, -27.47, 2574957, 2574753, 2574685, 2574739, 2574976,     119,    0.03,   0.064,    3.29,   20.66,    0.12
250043014,2013-07-10T13:41:24.879, 1178.14, 4941217, 237.80, -27.56, 2574839, 2574782, 2574667, 2574721, 2574858,     108,    0.22,   0.057,    1.65,   16.22,    0.19
250043015,2013-07-10T13:41:28.879, 1182.14, 4961213, 237.81, -27.65, 2574968, 2574703, 2574637, 2574692, 2574987,     143,   -0.34,   0.054,    1.43,   19.11,    0.32
250043016,2013-07-10T13:41:32.879, 1186.14, 4980819, 237.82, -27.74, 2574909, 2574644, 2574617, 2574672, 2574928,     125,   -0.60,   0.046,    1.29,   18.34,    0.21
250043017,2013-07-10T13:41:36.879, 1190.14, 5000666, 237.83, -27.83, 2574803, 2574594, 2574559, 2574614, 2574822,     100,   -1.01,   0.047,    3.26,   20.51,    0.02
250043018,2013-07-10T13:41:40.880, 1194.14, 5020422, 237.84, -27.92, 2574927, 2574601, 2574605, 2574660, 2574946,     145,   -0.74,   0.051,    3.31,   19.04,    0.11
250043019,2013-07-10T13:41:44.880, 1198.14, 5040208, 237.85, -28.00, 2574870, 2574565, 2574543, 2574599, 2574890,     104,   -1.58,   0.041,    6.06,   24.31,    0.15
250043020,2013-07-10T13:41:48.880, 1202.14, 5059965, 237.85, -28.07, 2574999, 2574555, 2574628, 2574684, 2575019,     167,   -0.85,   0.026,    0.14,   16.17,    0.62
250043021,2013-07-10T13:41:52.880, 1206.14, 5079331, 237.86, -28.12, 2575059, 2575019, 2574728, 2574785, 2575079,     222,    0.08,   0.030,    2.53,   26.75,    0.86
250043022,2013-07-10T13:41:56.881, 1210.14, 5099657, 237.87, -28.18, 2574905, 2574613, 2574605, 2574662, 2574925,     158,   -0.44,   0.065,    5.77,   17.99,    3.52
250043023,2013-07-10T13:42:00.881, 1214.14, 5119503, 237.88, -28.24, 2574976, 2574940, 2574692, 2574750, 2574995,     166,   -0.12,   0.085,    2.86,   14.54,    2.82
250043024,2013-07-10T13:42:04.881, 1218.14, 5138840, 237.91, -28.33, 2575097, 2575021, 2574743, 2574801, 2575116,     186,    0.46,   0.085,    3.70,   25.87,    0.05
250043025,2013-07-10T13:42:08.881, 1222.14, 5158896, 237.93, -28.41, 2575050, 2575019, 2574679, 2574737, 2575069,     194,    0.00,   0.085,    3.00,   19.82,    0.10
250043026,2013-07-10T13:42:12.882, 1226.14, 5178832, 237.95, -28.50, 2575002, 2575114, 2574721, 2574780, 2575021,     178,    0.55,   0.083,    2.63,   20.64,    0.15
250043027,2013-07-10T13:42:16.882, 1230.14, 5198589, 237.96, -28.59, 2574913, 2575108, 2574702, 2574760, 2574932,     134,    0.48,   0.078,    3.92,   17.59,    1.51
250043028,2013-07-10T13:42:20.882, 1234.14, 5218495, 237.96, -28.67, 2574994, 2575104, 2574710, 2574769, 2575013,     143,    0.60,   0.073,    3.57,   24.14,    0.21
250043029,2013-07-10T13:42:24.882, 1238.14, 5238491, 237.95, -28.75, 2574885, 2574945, 2574679, 2574738, 2574905,     115,    0.18,   0.057,    3.13,   16.62,    1.87
250043030,2013-07-10T13:42:28.883, 1242.14, 5258337, 237.94, -28.84, 2574981, 2574815, 2574687, 2574746, 2575002,     167,    0.14,   0.034,    2.20,   15.73,    0.25
250043031,2013-07-10T13:42:32.883, 1246.14, 5278573, 237.93, -28.92, 2574814, 2574503, 2574612, 2574672, 2574835,     117,   -0.16,   0.022,   -0.04,   15.22,    0.70
250043032,2013-07-10T13:42:36.883, 1250.14, 5297940, 237.93, -28.99, 2575168, 2575047, 2574744, 2574804, 2575189,     242,    0.20,   0.022,    0.17,   22.43,    0.73
250043033,2013-07-10T13:42:40.883, 1254.14, 5318476, 237.92, -29.07, 2575032, 2574515, 2574632, 2574692, 2575054,     213,   -0.62,   0.022,    2.01,   18.28,    0.22
250043034,2013-07-10T13:42:44.884, 1258.14, 5338472, 237.92, -29.16, 2575035, 2574510, 2574660, 2574721, 2575056,     218,   -0.34,   0.023,    1.35,   16.85,    0.47
250043035,2013-07-10T13:42:48.884, 1262.14, 5357958, 237.93, -29.23, 2575027, 2574492, 2574614, 2574675, 2575049,     231,   -0.45,   0.021,    1.35,   15.73,    0.45
250043036,2013-07-10T13:42:52.884, 1266.14, 5378404, 237.93, -29.31, 2574986, 2574502, 2574564, 2574626, 2575008,     183,   -0.95,   0.022,    1.64,   18.36,    0.16
250043037,2013-07-10T13:42:56.884, 1270.14, 5398400, 237.94, -29.39, 2574927, 2574491, 2574535, 2574597, 2574949,     173,   -0.80,   0.021,    2.16,   17.00,    0.31
250043038,2013-07-10T13:43:00.885, 1274.14, 5418456, 237.95, -29.47, 2574999, 2574460, 2574540, 2574602, 2575022,     206,   -1.00,   0.010,    1.82,   18.03,    0.45
250043039,2013-07-10T13:43:04.885, 1278.14, 5438423, 237.97, -29.54, 2574476, 2574433, 2574412, 2574474, 2574498,      40,   -0.03,   0.005,    0.74,   16.10,    0.64
250043040,2013-07-10T13:43:08.885, 1282.14, 5458479, 237.99, -29.62, 2574563, 2574465, 2574407, 2574470, 2574585,      66,   -0.15,   0.021,    3.18,   19.06,    0.05
250043041,2013-07-10T13:43:12.885, 1286.14, 5478505, 238.01, -29.69, 2574511, 2574521, 2574419, 2574482, 2574533,      42,    0.04,   0.043,    5.52,   20.74,    0.21
250043042,2013-07-10T13:43:16.886, 1290.14, 5498591, 238.02, -29.76, 2574739, 2574531, 2574440, 2574504, 2574761,      84,   -1.31,   0.051,    5.39,   22.72,    0.14
250043043,2013-07-10T13:43:20.886, 1294.14, 5518617, 238.02, -29.82, 2574755, 2574497, 2574436, 2574499, 2574776,     111,   -1.07,   0.054,    4.84,   21.51,    0.10
250043044,2013-07-10T13:43:24.886, 1298.14, 5538703, 238.02, -29.89, 2574766, 2574470, 2574427, 2574491, 2574788,      93,   -1.50,   0.045,    6.28,   24.04,    0.17
250043045,2013-07-10T13:43:28.886, 1302.14, 5558789, 238.03, -29.96, 2574563, 2574479, 2574406, 2574471, 2574585,      73,    0.04,   0.056,    4.89,   24.10,    0.13
250043046,2013-07-10T13:43:32.887, 1306.15, 5578905, 238.05, -30.02, 2574649, 2574492, 2574423, 2574488, 2574670,      67,    0.13,   0.070,    5.89,   28.40,    0.16
250043047,2013-07-10T13:43:36.887, 1310.15, 5599051, 238.06, -30.10, 2574685, 2574478, 2574414, 2574479, 2574706,      72,   -0.34,   0.077,    7.21,   26.90,    0.19
250043048,2013-07-10T13:43:40.887, 1314.15, 5619107, 238.06, -30.18, 2574694, 2574487, 2574432, 2574498, 2574716,      64,   -0.60,   0.074,    7.08,   29.18,    0.23
250043049,2013-07-10T13:43:44.887, 1318.15, 5639254, 238.08, -30.26, 2574766, 2574494, 2574435, 2574501, 2574788,      82,   -1.27,   0.081,    6.51,   27.43,    0.22
250043050,2013-07-10T13:43:48.888, 1322.15, 5659400, 238.07, -30.34, 2574698, 2574474, 2574436, 2574502, 2574720,      91,   -0.87,   0.066,    4.91,   23.82,    0.06
250043051,2013-07-10T13:43:52.888, 1326.15, 5679636, 238.06, -30.41, 2574768, 2574479, 2574453, 2574519, 2574790,     136,   -0.63,   0.052,    3.17,   20.56,    0.17
250043052,2013-07-10T13:43:56.888, 1330.15, 5699782, 238.05, -30.48, 2574503, 2574444, 2574389, 2574456, 2574526,      59,    0.51,   0.037,    4.46,   20.91,    0.03
250043053,2013-07-10T13:44:00.888, 1334.15, 5720018, 238.05, -30.55, 2574557, 2574381, 2574388, 2574455, 2574580,      83,   -0.39,   0.031,    1.52,   15.19,    0.48
250043054,2013-07-10T13:44:04.889, 1338.15, 5740134, 238.05, -30.63, 2574723, 2574423, 2574419, 2574486, 2574747,     115,   -1.36,   0.029,    4.21,   22.49,    0.05
250043055,2013-07-10T13:44:08.889, 1342.15, 5760340, 238.05, -30.70, 2574774, 2574407, 2574489, 2574557, 2574797,     159,   -0.59,   0.036,    1.57,   17.05,    0.35
250043056,2013-07-10T13:44:12.889, 1346.15, 5780096, 238.06, -30.77, 2574805, 2574404, 2574531, 2574599, 2574828,     161,   -0.22,   0.037,   -0.62,   13.55,    0.97
250043057,2013-07-10T13:44:16.889, 1350.15, 5800722, 238.07, -30.84, 2574695, 2574427, 2574454, 2574523, 2574718,     113,   -0.66,   0.044,    1.32,   16.16,    0.37
250043058,2013-07-10T13:44:20.890, 1354.15, 5820958, 238.07, -30.91, 2574798, 2574453, 2574487, 2574556, 2574821,     158,   -0.65,   0.050,    2.36,   16.46,    0.28
250043059,2013-07-10T13:44:24.890, 1358.15, 5841164, 238.09, -30.99, 2574701, 2574492, 2574436, 2574506, 2574724,     114,   -0.44,   0.065,    2.50,   17.24,    0.07
250043060,2013-07-10T13:44:28.890, 1362.15, 5861370, 238.10, -31.06, 2574718, 2574579, 2574500, 2574570, 2574741,     102,   -0.61,   0.073,    1.79,   18.01,    0.02
250043061,2013-07-10T13:44:32.890, 1366.15, 5881666, 238.11, -31.12, 2574737, 2574369, 2574486, 2574556, 2574760,     125,   -0.46,   0.078,    2.78,   16.98,    0.06
250043062,2013-07-10T13:44:36.891, 1370.15, 5901842, 238.11, -31.18, 2574779, 2574543, 2574511, 2574581, 2574803,     112,   -0.62,   0.064,    3.13,   19.54,    0.02
250043063,2013-07-10T13:44:40.891, 1374.15, 5922138, 238.11, -31.24, 2574712, 2574489, 2574464, 2574534, 2574736,      88,   -0.95,   0.046,    4.47,   22.83,    0.06
250043064,2013-07-10T13:44:44.891, 1378.15, 5942404, 238.11, -31.29, 2574797, 2574496, 2574482, 2574553, 2574821,     120,   -0.83,   0.042,    3.57,   21.14,    0.08
250043065,2013-07-10T13:44:48.891, 1382.15, 5962700, 238.11, -31.35, 2574839, 2574480, 2574535, 2574606, 2574863,     138,   -0.74,   0.033,    0.52,   18.01,    0.41
250043066,2013-07-10T13:44:52.892, 1386.15, 5982996, 238.12, -31.41, 2574769, 2574512, 2574516, 2574587, 2574794,     108,   -1.02,   0.039,    1.48,   19.48,    0.14
250043067,2013-07-10T13:44:56.892, 1390.15, 6003321, 238.13, -31.46, 2574777, 2574496, 2574526, 2574598, 2574801,     128,   -0.53,   0.050,    1.90,   18.01,    0.26
250043068,2013-07-10T13:45:00.892, 1394.15, 6023557, 238.13, -31.52, 2574771, 2574407, 2574526, 2574598, 2574795,     132,   -0.24,   0.058,    0.67,   16.20,    0.36
250043069,2013-07-10T13:45:04.892, 1398.15, 6043943, 238.14, -31.60, 2574841, 2574496, 2574548, 2574621, 2574865,     157,   -0.51,   0.046,    1.02,   16.95,    0.29
250043070,2013-07-10T13:45:08.893, 1402.15, 6064359, 238.14, -31.66, 2574867, 2574501, 2574546, 2574619, 2574891,     162,   -0.45,   0.043,    0.08,   15.74,    0.38
250043071,2013-07-10T13:45:12.893, 1406.15, 6084655, 238.14, -31.74, 2574932, 2574784, 2574620, 2574693, 2574957,     179,    0.13,   0.038,    0.02,   18.12,    0.43
250043072,2013-07-10T13:45:16.893, 1410.15, 6104831, 238.15, -31.82, 2574962, 2574931, 2574596, 2574669, 2574987,     218,    0.04,   0.042,    0.15,   22.36,    0.85
250043073,2013-07-10T13:45:20.893, 1414.15, 6125367, 238.15, -31.89, 2574940, 2574908, 2574651, 2574725, 2574965,     173,    0.04,   0.052,    4.83,   15.38,    2.70
250043074,2013-07-10T13:45:24.894, 1418.15, 6145723, 238.16, -31.96, 2574956, 2575106, 2574637, 2574712, 2574980,     202,    0.30,   0.071,    3.31,   20.86,    0.18
250043075,2013-07-10T13:45:28.894, 1422.15, 6165629, 238.15, -32.02, 2575026, 2575083, 2574671, 2574746, 2575051,     200,    0.32,   0.061,    2.76,   22.54,    0.15
250043076,2013-07-10T13:45:32.894, 1426.15, 6185955, 238.15, -32.08, 2575000, 2574996, 2574662, 2574737, 2575025,     222,    0.58,   0.048,    2.45,   23.12,    0.09
250043077,2013-07-10T13:45:36.894, 1430.15, 6206461, 238.15, -32.13, 2574974, 2574903, 2574683, 2574758, 2575000,     180,    0.20,   0.034,    1.85,   17.99,    0.67
250043078,2013-07-10T13:45:40.895, 1434.15, 6226847, 238.14, -32.19, 2574966, 2574885, 2574628, 2574704, 2574992,     232,    0.49,   0.023,    0.67,   22.99,    0.31
250043079,2013-07-10T13:45:44.895, 1438.15, 6247233, 238.14, -32.24, 2574950, 2574867, 2574640, 2574716, 2574976,     200,    0.36,   0.015,   -0.43,   20.29,    0.74
250043080,2013-07-10T13:45:48.895, 1442.15, 6267678, 238.14, -32.30, 2574919, 2574882, 2574621, 2574697, 2574946,     242,    0.57,   0.014,    0.66,   19.93,    0.50
250043081,2013-07-10T13:45:52.895, 1446.15, 6288094, 238.14, -32.35, 2574965, 2574920, 2574700, 2574776, 2574991,     196,    0.55,   0.019,    1.00,   20.66,    0.33
250043082,2013-07-10T13:45:56.896, 1450.15, 6308450, 238.14, -32.41, 2574964, 2574936, 2574606, 2574683, 2574991,     258,    0.14,   0.020,    0.74,   24.01,    0.61
250043083,2013-07-10T13:46:00.896, 1454.15, 6329376, 238.15, -32.46, 2574936, 2574460, 2574560, 2574638, 2574963,     210,   -0.49,   0.024,    1.50,   17.51,    0.22
250043084,2013-07-10T13:46:04.896, 1458.15, 6349792, 238.16, -32.52, 2574916, 2574504, 2574576, 2574654, 2574942,     200,   -0.22,   0.025,    0.93,   15.57,    0.54
250043085,2013-07-10T13:46:08.896, 1462.15, 6370387, 238.17, -32.58, 2574604, 2574413, 2574375, 2574453, 2574630,      89,   -1.13,   0.029,    1.96,   17.27,    0.07
250043086,2013-07-10T13:46:12.897, 1466.16, 6390803, 238.18, -32.63, 2574817, 2574446, 2574459, 2574538, 2574844,     135,   -1.28,   0.031,    3.59,   18.86,    0.01
250043087,2013-07-10T13:46:16.897, 1470.16, 6411219, 238.19, -32.69, 2574843, 2574470, 2574446, 2574525, 2574869,     130,   -1.56,   0.039,    4.67,   21.28,    0.14
250043088,2013-07-10T13:46:20.897, 1474.16, 6431695, 238.20, -32.75, 2574787, 2574467, 2574419, 2574498, 2574813,     109,   -1.13,   0.043,    5.38,   23.83,    0.17
250043089,2013-07-10T13:46:24.897, 1478.16, 6452171, 238.22, -32.81, 2574813, 2574494, 2574462, 2574542, 2574839,     117,   -1.30,   0.051,    5.21,   21.95,    0.11
250043090,2013-07-10T13:46:28.898, 1482.16, 6472766, 238.23, -32.87, 2574531, 2574414, 2574365, 2574446, 2574558,      68,   -0.52,   0.059,    6.27,   24.12,    0.15
250043091,2013-07-10T13:46:32.898, 1486.16, 6493302, 238.23, -32.93, 2574491, 2574388, 2574373, 2574454, 2574518,      62,   -0.31,   0.041,    3.35,   18.63,    0.26
250043092,2013-07-10T13:46:36.898, 1490.16, 6513658, 238.22, -33.01, 2574735, 2574506, 2574436, 2574517, 2574762,      89,   -0.96,   0.022,    5.14,   23.04,    0.05
250043093,2013-07-10T13:46:40.898, 1494.16, 6534194, 238.22, -33.08, 2574544, 2574516, 2574438, 2574520, 2574572,      55,    0.62,   0.022,    5.10,   24.34,    0.07
250043094,2013-07-10T13:46:46.876, 1500.13, 6564863, 238.22, -33.18, 2574684, 2574507, 2574470, 2574552, 2574711,      82,   -0.51,   0.047,    0.45,   20.07,    0.12
250043095,2013-07-10T13:46:50.876, 1504.13, 6585458, 238.22, -33.25, 2574856, 2574463, 2574489, 2574572, 2574883,     167,   -0.83,   0.058,    0.98,   18.05,    0.38
250043096,2013-07-10T13:46:54.876, 1508.13, 6605934, 238.22, -33.32, 2574931, 2574506, 2574532, 2574615, 2574958,     161,   -1.27,   0.080,    6.01,   24.47,    0.11
250043097,2013-07-10T13:46:58.876, 1512.13, 6626530, 238.21, -33.38, 2574908, 2574491, 2574510, 2574593, 2574935,     141,   -1.49,   0.090,    4.02,   23.90,    0.12
250043098,2013-07-10T13:47:02.876, 1516.13, 6647096, 238.20, -33.42, 2574930, 2574960, 2574653, 2574737, 2574957,     173,    0.05,   0.073,    1.79,   16.17,    1.03
250043099,2013-07-10T13:47:06.877, 1520.14, 6667662, 238.21, -33.47, 2574913, 2574471, 2574534, 2574618, 2574941,     164,   -1.04,   0.064,    2.53,   20.60,    0.05
250043100,2013-07-10T13:47:10.877, 1524.14, 6688257, 238.19, -33.52, 2574837, 2574467, 2574529, 2574614, 2574865,     152,   -0.77,   0.064,    2.61,   19.63,    0.20
250043101,2013-07-10T13:47:14.877, 1528.13, 6708373, 238.20, -33.56, 2574940, 2574936, 2574598, 2574683, 2574968,     215,   -0.13,   0.060,   -0.43,   15.10,    3.31
250043102,2013-07-10T13:47:18.877, 1532.13, 6729119, 238.19, -33.61, 2575021, 2574866, 2574633, 2574718, 2575048,     230,    0.24,   0.068,   -0.45,   21.39,    0.61
250043103,2013-07-10T13:47:22.878, 1536.14, 6749745, 238.19, -33.65, 2574987, 2574618, 2574614, 2574699, 2575015,     181,   -0.13,   0.075,   -0.84,   17.88,    0.68
250043104,2013-07-10T13:47:26.878, 1540.14, 6770520, 238.18, -33.70, 2574954, 2574817, 2574639, 2574725, 2574981,     192,    0.34,   0.083,   -0.08,   16.96,    0.36
250043105,2013-07-10T13:47:30.878, 1544.14, 6791086, 238.19, -33.75, 2574980, 2574755, 2574601, 2574688, 2575008,     201,   -0.10,   0.087,   -0.50,   19.54,    0.50
250043106,2013-07-10T13:47:34.878, 1548.14, 6811442, 238.18, -33.79, 2574931, 2574637, 2574652, 2574739, 2574958,     169,    0.17,   0.107,    0.16,   17.52,    0.19
250043107,2013-07-10T13:47:38.879, 1552.14, 6832098, 238.16, -33.84, 2575001, 2574896, 2574652, 2574741, 2575027,     212,    0.30,   0.126,    0.31,   21.76,    0.06
250043108,2013-07-10T13:47:42.879, 1556.14, 6852873, 238.17, -33.89, 2574905, 2574814, 2574635, 2574724, 2574931,     142,    0.39,   0.126,    2.40,   21.49,    0.11
250043109,2013-07-10T13:47:46.879, 1560.14, 6873409, 238.16, -33.94, 2574920, 2574856, 2574663, 2574753, 2574947,     143,    0.79,   0.135,    1.97,   24.55,    0.15
250043110,2013-07-10T13:47:50.879, 1564.14, 6894125, 238.17, -33.99, 2574890, 2574802, 2574617, 2574707, 2574917,     146,    0.47,   0.135,    1.31,   20.77,    0.11
250043111,2013-07-10T13:47:54.880, 1568.14, 6914691, 238.18, -34.04, 2574873, 2574826, 2574609, 2574699, 2574900,     200,    1.12,   0.128,    2.50,   27.18,    0.07
250043112,2013-07-10T13:47:58.880, 1572.14, 6935376, 238.21, -34.11, 2574886, 2574809, 2574588, 2574678, 2574913,     216,    0.81,   0.098,    1.52,   24.13,    0.08
250043113,2013-07-10T13:48:02.880, 1576.14, 6956032, 238.22, -34.18, 2574867, 2574736, 2574539, 2574628, 2574896,     218,    0.86,   0.077,    1.60,   25.39,    0.12
250043114,2013-07-10T13:48:06.880, 1580.14, 6976808, 238.25, -34.26, 2574721, 2574720, 2574470, 2574560, 2574750,     179,    0.21,   0.056,   -1.00,   15.32,    0.62
250043115,2013-07-10T13:48:10.881, 1584.14, 6997403, 238.27, -34.33, 2574708, 2574285, 2574425, 2574515, 2574737,     187,   -0.18,   0.059,   -0.33,   16.06,    0.62
250043116,2013-07-10T13:48:14.881, 1588.14, 7018059, 238.29, -34.40, 2574866, 2574790, 2574440, 2574530, 2574895,     243,   -0.02,   0.076,    2.14,   25.15,    0.94
250043117,2013-07-10T13:48:18.881, 1592.14, 7039194, 238.31, -34.46, 2574731, 2574316, 2574321, 2574412, 2574760,     158,   -1.32,   0.080,    5.20,   21.59,    0.09
250043118,2013-07-10T13:48:22.881, 1596.14, 7059400, 238.33, -34.50, 2574842, 2574772, 2574471, 2574562, 2574871,     227,    0.00,   0.074,    2.06,   25.21,    0.59
250043119,2013-07-10T13:48:26.882, 1600.14, 7080596, 238.35, -34.54, 2574696, 2574308, 2574360, 2574452, 2574725,     166,   -0.98,   0.067,    3.57,   19.16,    0.09
250043120,2013-07-10T13:48:30.882, 1604.14, 7101191, 238.36, -34.59, 2574707, 2574392, 2574364, 2574456, 2574736,     151,   -0.66,   0.068,    3.25,   22.30,    0.02
250043121,2013-07-10T13:48:34.882, 1608.14, 7121907, 238.38, -34.62, 2574828, 2574401, 2574405, 2574498, 2574858,     176,   -0.77,   0.069,    4.62,   23.53,    0.02
250043122,2013-07-10T13:48:38.882, 1612.14, 7142623, 238.39, -34.66, 2574814, 2574394, 2574390, 2574483, 2574844,     161,   -1.07,   0.068,    3.56,   21.88,    0.08
250043123,2013-07-10T13:48:42.883, 1616.14, 7163368, 238.37, -34.71, 2574857, 2574403, 2574392, 2574485, 2574888,     147,   -1.56,   0.046,    6.51,   23.94,    0.09
250043124,2013-07-10T13:48:46.883, 1620.14, 7184084, 238.35, -34.75, 2574398, 2574402, 2574346, 2574439, 2574429,      35,    1.66,   0.023,    7.59,   26.20,    0.16
250043125,2013-07-10T13:48:50.883, 1624.14, 7204830, 238.35, -34.79, 2574409, 2574393, 2574340, 2574434, 2574440,      33,    0.51,   0.017,    8.31,   23.81,    0.15
250043126,2013-07-10T13:48:54.883, 1628.14, 7225545, 238.33, -34.84, 2574771, 2574405, 2574385, 2574479, 2574802,     116,   -1.86,   0.023,    8.21,   26.75,    0.17
250043127,2013-07-10T13:48:58.884, 1632.14, 7246291, 238.32, -34.88, 2574794, 2574438, 2574378, 2574473, 2574825,      73,   -2.72,   0.041,    9.47,   32.01,    0.27
250043128,2013-07-10T13:49:02.884, 1636.14, 7267037, 238.31, -34.92, 2574793, 2574447, 2574413, 2574508, 2574823,     127,   -1.37,   0.061,    5.60,   25.43,    0.14
250043129,2013-07-10T13:49:06.884, 1640.14, 7287782, 238.30, -34.96, 2574805, 2574444, 2574390, 2574486, 2574835,      98,   -2.07,   0.080,    7.75,   28.17,    0.21
250043130,2013-07-10T13:49:10.884, 1644.14, 7308558, 238.30, -35.03, 2574822, 2574447, 2574397, 2574493, 2574853,      89,   -2.08,   0.075,    8.63,   28.49,    0.25
250043131,2013-07-10T13:49:14.885, 1648.14, 7329304, 238.30, -35.09, 2574837, 2574454, 2574389, 2574485, 2574868,      88,   -1.66,   0.072,    8.51,   29.36,    0.21
250043132,2013-07-10T13:49:18.885, 1652.14, 7350139, 238.30, -35.16, 2574671, 2574413, 2574385, 2574482, 2574702,     101,   -0.64,   0.076,    3.45,   22.99,    0.14
250043133,2013-07-10T13:49:22.885, 1656.14, 7371035, 238.30, -35.22, 2574721, 2574418, 2574416, 2574514, 2574752,     131,   -0.58,   0.087,    4.08,   19.61,    0.22
250043134,2013-07-10T13:49:26.885, 1660.14, 7391660, 238.30, -35.29, 2574702, 2574440, 2574382, 2574481, 2574732,      91,   -0.96,   0.106,    6.04,   27.58,    0.20
250043135,2013-07-10T13:49:30.886, 1664.14, 7412496, 238.32, -35.35, 2574748, 2574427, 2574391, 2574490, 2574778,     115,   -0.89,   0.096,    5.57,   24.55,    0.08
250043136,2013-07-10T13:49:34.886, 1668.14, 7433272, 238.36, -35.41, 2574725, 2574423, 2574419, 2574519, 2574755,     126,   -0.75,   0.096,    3.24,   22.09,    0.06
250043137,2013-07-10T13:49:38.886, 1672.14, 7454107, 238.40, -35.46, 2574669, 2574396, 2574354, 2574454, 2574699,     181,    0.18,   0.104,    1.49,   16.79,    0.26
250043138,2013-07-10T13:49:42.886, 1676.14, 7475003, 238.43, -35.49, 2574619, 2574372, 2574346, 2574446, 2574650,     114,   -0.79,   0.091,    2.76,   19.29,    0.06
250043139,2013-07-10T13:49:46.887, 1680.15, 7495688, 238.47, -35.51, 2574716, 2574340, 2574374, 2574474, 2574747,     190,   -0.10,   0.094,    1.66,   17.37,    0.39
250043140,2013-07-10T13:49:50.887, 1684.14, 7516674, 238.48, -35.54, 2574677, 2574349, 2574327, 2574428, 2574708,     171,   -0.32,   0.094,    1.73,   17.39,    0.25
250043141,2013-07-10T13:49:54.887, 1688.14, 7537479, 238.48, -35.58, 2574733, 2574361, 2574366, 2574467, 2574764,     192,   -0.37,   0.088,    1.12,   18.45,    0.19
250043142,2013-07-10T13:49:58.887, 1692.14, 7558195, 238.46, -35.61, 2574727, 2574303, 2574413, 2574514, 2574759,     186,   -0.30,   0.064,    0.62,   15.30,    0.73
250043143,2013-07-10T13:50:02.888, 1696.15, 7578821, 238.43, -35.65, 2574733, 2574611, 2574450, 2574551, 2574766,     163,   -0.06,   0.036,   -0.09,   14.59,    1.12
250043144,2013-07-10T13:50:06.888, 1700.15, 7599536, 238.40, -35.68, 2574894, 2574813, 2574412, 2574513, 2574927,     261,    0.17,   0.044,    1.62,   23.49,    0.84
250043145,2013-07-10T13:50:10.888, 1704.15, 7620642, 238.37, -35.72, 2574822, 2574525, 2574441, 2574543, 2574854,     238,    0.40,   0.068,    2.04,   23.77,    0.50
250043146,2013-07-10T13:50:14.888, 1708.15, 7641238, 238.34, -35.76, 2574836, 2574729, 2574422, 2574526, 2574868,     242,    0.25,   0.104,    3.38,   26.49,    0.12
250043147,2013-07-10T13:50:18.889, 1712.15, 7662553, 238.33, -35.82, 2574729, 2574634, 2574397, 2574502, 2574761,     192,    0.01,   0.110,    1.79,   14.26,    0.02
250043148,2013-07-10T13:50:22.889, 1716.15, 7683239, 238.31, -35.88, 2574747, 2574629, 2574375, 2574480, 2574778,     187,   -0.07,   0.121,    2.79,   19.95,    0.01
250043149,2013-07-10T13:50:26.889, 1720.15, 7703804, 238.33, -35.94, 2574829, 2574722, 2574436, 2574541, 2574861,     244,    0.52,   0.107,    2.64,   24.11,    0.05
250043150,2013-07-10T13:50:30.889, 1724.15, 7725000, 238.36, -36.00, 2574692, 2574319, 2574333, 2574437, 2574724,     193,    0.06,   0.082,    1.28,   16.60,    0.23
250043151,2013-07-10T13:50:34.890, 1728.15, 7746015, 238.37, -36.05, 2574731, 2574314, 2574382, 2574487, 2574764,     164,   -0.69,   0.072,    0.68,   17.50,    0.31
250043152,2013-07-10T13:50:38.890, 1732.15, 7766761, 238.39, -36.10, 2574693, 2574401, 2574434, 2574539, 2574727,     147,   -0.19,   0.058,   -0.04,   13.77,    0.79
250043153,2013-07-10T13:50:42.890, 1736.15, 7787566, 238.42, -36.16, 2574608, 2574494, 2574402, 2574507, 2574642,     112,    0.01,   0.056,    0.73,   15.01,    0.59
250043154,2013-07-10T13:50:46.890, 1740.15, 7808732, 238.43, -36.21, 2574438, 2574136, 2574239, 2574345, 2574472,     122,   -0.23,   0.062,   -1.02,   14.58,    1.13
250043155,2013-07-10T13:50:50.891, 1744.15, 7829567, 238.45, -36.26, 2574678, 2574314, 2574324, 2574431, 2574712,     202,   -0.20,   0.068,    1.34,   18.43,    0.53